Location: Antioch Baptist Church
(32.6696°N, 85.7327°W)
Time: 00:16:50
(UTC+00:00)

Cosmos 1844 - Pass Details

Date: 14 July 2020
Orbit: 822 x 868 km, 70.9° (Epoch: 12 August)

Event Time Altitude Azimuth Distance (km) Brightness Sun altitude
Rises 01:16:10 0° 345° (NNW) 3,440 7.6 -5.3°
Reaches altitude 10° 01:18:43 10° 350° (N) 2,494 6.8 -5.7°
Maximum altitude 01:24:18 53° 67° (ENE) 1,037 4.0 -6.8°
Drops below altitude 10° 01:29:48 10° 143° (SE) 2,451 5.5 -7.7°
Enters shadow 01:30:30 - 145° (SE) 2,712 5.8 -7.9°
